Location: Alsip
(41.6689°N, 87.7387°W)
Time: 14:18:52
(UTC+00:00)

Intercosmos 25 Rocket - Pass Details

Date: 14 July 2020
Orbit: 434 x 2985 km, 82.6° (Epoch: 04 August)

Event Time Altitude Azimuth Distance (km) Brightness Sun altitude
Rises 09:51:23 0° 346° (NNW) 2,708 7.2 -6.7°
Reaches altitude 10° 09:53:11 10° 342° (NNW) 1,956 6.4 -6.5°
Maximum altitude 09:57:17 59° 263° (W) 913 4.2 -5.9°
Drops below altitude 10° 10:03:49 10° 186° (S) 3,083 6.7 -4.9°
Sets 10:07:17 0° 183° (S) 4,453 7.6 -4.3°
